Location: Dackenheim
(49.5215°N, 8.1854°E)
Time: 22:01:24
(UTC+00:00)

Cosmos 405 Rocket - Pass Details

Date: 19 May 2025
Orbit: 414 x 448 km, 81.2° (Epoch: 15 June)

Event Time Altitude Azimuth Distance (km) Brightness Sun altitude
Rises 21:38:18 0° 354° (N) 2,460 7.5 -16.7°
Reaches altitude 10° 21:40:29 10° 2° (N) 1,578 6.1 -16.8°
Maximum altitude 21:43:45 39° 73° (ENE) 677 3.2 -17.0°
Enters shadow 21:44:29 34° 106° (ESE) 748 3.1 -17.1°
